Regional Weather Roundup
Issued by NWS Midland/Odessa, TX

Home | Current Version | Previous Version | Text Only | Print | Product List | Glossary On
Versions: 1 2 3 4 5 6 7 8 9 10 11 12 13 14 15 16 17 18 19 20 21 22 23 24 25 26 27 28 29 30 31 32 33 34 35 36 37 38 39 40 41 42 43 44 45 46 47 48 49 50
000
ASUS44 KMAF 062010
RWRMAF
MIDLAND AREA WEATHER ROUNDUP
NATIONAL WEATHER SERVICE MIDLAND TX
200 PM CST FRI MAR 06 2015

...IN SOUTHWEST TEXAS AND SOUTHEAST NEW MEXICO...

CITY           SKY/WX    TMP DP  RH WIND       PRES   REMARKS
ALPINE         SUNNY     58  33  37 E8        30.39F
ANDREWS        FAIR      53  29  39 SW8       30.38F
ARTESIA        SUNNY     50  30  46 CALM      30.36F
BIG SPRING     SUNNY     58  31  35 S12       30.43F
CARLSBAD       SUNNY     49  30  48 VRB3      30.36F
DRYDEN           N/A     52  27  38 E8        30.40F
FORT STOCKTON  SUNNY     55  33  43 E9G17     30.37
GUAD PASS      NOT AVBL
HOBBS          SUNNY     54  25  32 S6        30.37F
MARFA          SUNNY     57  30  35 E7        30.35F
MIDLAND AIRPK  SUNNY     53  30  40 S7        30.40F
MIDLAND INTL   SUNNY     51  30  44 S7        30.39F
ODESSA         SUNNY     52  29  41 S9        30.39F
PECOS          SUNNY     47  38  69 E6        30.40F
PRESIDIO       FAIR      57  32  38 E6        30.32F
SEMINOLE       SUNNY     54  25  33 SW5       30.38F
SNYDER         SUNNY     50  29  44 SW6       30.42F
WINK           SUNNY     52  30  43 SE7       30.37F
$$
...OTHER STATIONS IN TEXAS...

CITY           SKY/WX    TMP DP  RH WIND       PRES   REMARKS
ABILENE        SUNNY     51  22  31 S9        30.45
AMARILLO       SUNNY     58  25  28 W10       30.32
AUSTIN         SUNNY     52  25  35 N9        30.51
BROWNSVILLE    CLOUDY    51  38  60 N13       30.52F
CORPUS CHRISTI CLOUDY    48  22  35 E6        30.55F
DALLAS FTW     SUNNY     48  21  34 VRB3      30.51F
DEL RIO        SUNNY     52  21  29 E10       30.48
EL PASO        MOSUNNY   58  16  19 VRB3      30.31F
HOUSTON INT    PTSUNNY   52  18  26 VRB7      30.50
LUBBOCK        MOSUNNY   51  29  42 SW8       30.37F
SAN ANGELO     SUNNY     55  24  30 CALM      30.43F
SAN ANTONIO    MOSUNNY   52  26  36 E10       30.50F
WACO           SUNNY     50  24  36 NW5       30.52F
WICHITA FALLS  NOT AVBL
$$
...OTHER LOCATIONS IN NEW MEXICO...

CITY           SKY/WX    TMP DP  RH WIND       PRES   REMARKS
ALAMAGORDO     SUNNY     54  19  26 CALM      30.34F
ALBUQUERQUE    SUNNY     53  12  19 CALM      30.35F
CANNON AFB     SUNNY     53  28  36 SW8       30.32F
CLOVIS         SUNNY     54  27  35 SW10      30.33F
HOLLOMAN AFB   SUNNY     53  18  24 E3        30.32F
ROSWELL        SUNNY     50  29  44 CALM      30.35F
RUIDOSO        SUNNY     54   7  15 CALM      30.35F
SANTA FE       SUNNY     52   8  17 VRB3      30.33F
TRUTH OR CONSE SUNNY     56   7  14 E7        30.32F
TUCUMCARI      SUNNY     57  22  25 CALM      30.29F
$$



USA.gov is the U.S. government's official web portal to all federal, state and local government web resources and services.